DW6193 Weather Reports


Display with metric or nautical units.
time (UTC)temp
F
wind
direction
speed
MPH
gust
MPH
rain 1hr
in
rain 24hr
in
rain mn
in
humidity
%
barometer
mb
20260506073526 58 302 1.0 5.0 0.00 0.00 0.00 1018.7
20260506073043 58 268 1.0 5.0 0.00 0.00 0.00 1018.6
20260506072526 59 39 0.0 6.0 0.00 0.00 0.00 1018.5
20260506072029 59 302 3.0 6.0 0.00 0.00 0.00 1018.5
20260506071545 59 243 3.0 6.0 0.00 0.00 0.00 1018.5
20260506071027 59 257 2.0 6.0 0.00 0.00 0.00 1018.5
20260506070528 59 222 3.0 6.0 0.00 0.00 0.00 1018.4
20260506062027 59 261 1.0 3.0 0.00 0.00 0.00 1018.3
20260506061544 59 322 1.0 4.0 0.00 0.00 0.00 1018.3
20260506061027 59 192 1.0 4.0 0.00 0.00 0.00 1018.2
20260506060528 59 261 1.0 4.0 0.00 0.00 0.00 1018.2
20260506051027 60 291 5.0 9.0 0.00 0.00 0.00 1017.9
20260506050528 60 288 1.0 6.0 0.00 0.00 0.00 1017.9
20260506045027 59 170 1.0 4.0 0.00 0.00 0.00 1017.7
20260506044539 59 252 2.0 4.0 0.00 0.00 0.00 1017.8
20260506044029 59 0 1.0 4.0 0.00 0.00 0.00 1017.7
20260506043526 60 183 0.0 2.0 0.00 0.00 0.00 1017.7
20260506043109 60 39 0.0 2.0 0.00 0.00 0.00 1017.7
20260506042526 59 302 1.0 2.0 0.00 0.00 0.00 1017.6
20260506042025 59 311 0.0 2.0 0.00 0.00 0.00 1017.4
20260506041539 59 227 1.0 2.0 0.00 0.00 0.00 1017.5
20260506041027 58 183 1.0 4.0 0.00 0.00 0.00 1017.4
20260506040526 58 227 1.0 4.0 0.00 0.00 0.00 1017.5
20260506040038 58 250 2.0 4.0 0.00 0.00 0.00 1017.4
20260506035527 59 254 2.0 4.0 0.00 0.00 0.00 1017.3
20260506035026 60 344 1.0 4.0 0.00 0.00 0.00 1017.3
20260506034537 59 278 2.0 4.0 0.00 0.00 0.00 1017.2
20260506034027 59 252 2.0 4.0 0.00 0.00 0.00 1017.1
20260506033528 60 277 0.0 2.0 0.00 0.00 0.00 1017.0
20260506033039 60 227 1.0 2.0 0.00 0.00 0.00 1017.0
20260506032524 61 283 0.0 2.0 0.00 0.00 0.00 1017.0
20260506032024 61 0 0.0 2.0 0.00 0.00 0.00 1017.0
20260506031539 61 0 0.0 2.0 0.00 0.00 0.00 1016.9
20260506031028 61 295 0.0 3.0 0.00 0.00 0.00 1016.9
20260506030527 60 295 1.0 4.0 0.00 0.00 0.00 1016.9
20260506030037 60 0 1.0 4.0 0.00 0.00 0.00 1016.8
20260506025529 60 259 1.0 3.0 0.00 0.00 0.00 1016.8
20260506025026 60 292 1.0 3.0 0.00 0.00 0.00 1016.8
20260506024551 60 291 1.0 4.0 0.00 0.00 0.00 1016.8
20260506024026 61 286 0.0 4.0 0.00 0.00 0.00 1016.7
20260506023526 60 268 2.0 4.0 0.00 0.00 0.00 1016.6
20260506023044 61 281 1.0 4.0 0.00 0.00 0.00 1016.5
20260506022530 61 286 0.0 3.0 0.00 0.00 0.00 1016.5
20260506022027 61 0 0.0 4.0 0.00 0.00 0.00 1016.7
20260506021538 62 0 0.0 4.0 0.00 0.00 0.00 1016.6
20260506021026 61 0 1.0 5.0 0.00 0.00 0.00 1016.7
20260506020526 61 283 1.0 6.0 0.00 0.00 0.00 1016.6
20260506020040 61 283 1.0 6.0 0.00 0.00 0.00 1016.6
20260506015526 61 277 2.0 6.0 0.00 0.00 0.00 1016.7
20260506015029 62 292 1.0 4.0 0.00 0.00 0.00 1016.7
20260506014537 62 295 0.0 4.0 0.00 0.00 0.00 1016.7
20260506014026 62 0 1.0 4.0 0.00 0.00 0.00 1016.6
20260506013526 62 291 1.0 5.0 0.00 0.00 0.00 1016.5
20260506013038 62 210 1.0 5.0 0.00 0.00 0.00 1016.6
20260506012524 62 284 1.0 5.0 0.00 0.00 0.00 1016.6
20260506012026 62 0 1.0 5.0 0.00 0.00 0.00 1016.6
20260506011602 62 309 2.0 5.0 0.00 0.00 0.00 1016.5
20260506011026 63 311 1.0 5.0 0.00 0.00 0.00 1016.7
20260506010526 63 268 0.0 5.0 0.00 0.00 0.00 1016.6
20260506010037 63 268 1.0 5.0 0.00 0.00 0.00 1016.6
20260506005525 63 311 1.0 5.0 0.00 0.00 0.00 1016.5
20260506005025 63 268 1.0 3.0 0.00 0.00 0.00 1016.7
20260506004552 64 0 0.0 3.0 0.00 0.00 0.00 1016.6
20260506004026 64 252 0.0 3.0 0.00 0.00 0.00 1016.7
20260506003524 64 243 1.0 4.0 0.00 0.00 0.00 1016.7
20260506003036 64 64 1.0 4.0 0.00 0.00 0.00 1016.6
20260506002524 65 49 0.0 3.0 0.00 0.00 0.00 1016.6
20260506002024 64 0 1.0 3.0 0.00 0.00 0.00 1016.8
20260506001544 65 141 0.0 3.0 0.00 0.00 0.00 1016.7
20260506001027 64 134 1.0 4.0 0.00 0.00 0.00 1016.8
20260506000527 64 0 0.0 6.0 0.00 0.00 0.00 1016.9
20260506000108 64 205 1.0 6.0 0.00 0.00 0.00 1017.1
20260505235527 64 305 1.0 4.0 0.00 0.00 0.00 1017.0
20260505235027 64 207 1.0 4.0 0.00 0.00 0.00 1017.1
20260505234544 64 268 1.0 4.0 0.00 0.00 0.00 1016.9
20260505234027 64 170 0.0 2.0 0.00 0.00 0.00 1017.0
20260505233528 64 183 0.0 4.0 0.00 0.00 0.00 1017.1
20260505233037 64 259 1.0 4.0 0.00 0.00 0.00 1017.0
20260505232526 64 0 1.0 5.0 0.00 0.00 0.00 1017.1
20260505232024 65 247 1.0 5.0 0.00 0.00 0.00 1017.1
20260505231537 64 252 1.0 5.0 0.00 0.00 0.00 1017.0
20260505231024 65 299 1.0 5.0 0.00 0.00 0.00 1017.0
20260505230524 65 0 1.0 5.0 0.00 0.00 0.00 1017.1
20260505230058 68 286 1.0 5.0 0.00 0.00 0.00 1017.0
20260505225530 67 261 1.0 5.0 0.00 0.00 0.00 1017.0
20260505225024 69 322 1.0 5.0 0.00 0.00 0.00 1017.0
20260505224541 70 250 1.0 5.0 0.00 0.00 0.00 1017.0
20260505224023 72 76 1.0 6.0 0.00 0.00 0.00 1017.2
20260505223525 71 157 1.0 6.0 0.00 0.00 0.00 1017.2
20260505223039 71 0 1.0 4.0 0.00 0.00 0.00 1017.1
20260505222529 72 268 1.0 4.0 0.00 0.00 0.00 1017.2
20260505222025 73 322 1.0 4.0 0.00 0.00 0.00 1017.2
20260505221536 70 227 1.0 4.0 0.00 0.00 0.00 1017.2
20260505221024 70 141 1.0 5.0 0.00 0.00 0.00 1017.3
20260505220523 70 0 1.0 5.0 0.00 0.00 0.00 1017.3
20260505220039 69 295 1.0 5.0 0.00 0.00 0.00 1017.4
20260505215523 70 355 1.0 5.0 0.00 0.00 0.00 1017.4
20260505215023 71 286 1.0 6.0 0.00 0.00 0.00 1017.3
20260505214542 72 183 1.0 7.0 0.00 0.00 0.00 1017.3
20260505214024 77 243 1.0 7.0 0.00 0.00 0.00 1017.4
20260505213525 78 71 1.0 5.0 0.00 0.00 0.00 1017.3
20260505213039 78 283 1.0 5.0 0.00 0.00 0.00 1017.5
20260505212527 77 114 1.0 6.0 0.00 0.00 0.00 1017.5
20260505212027 76 183 1.0 6.0 0.00 0.00 0.00 1017.6
20260505211540 74 283 1.0 7.0 0.00 0.00 0.00 1017.5
20260505211027 70 286 2.0 7.0 0.00 0.00 0.00 1017.7
20260505210528 77 55 1.0 8.0 0.00 0.00 0.00 1017.7
20260505210036 75 124 2.0 8.0 0.00 0.00 0.00 1017.8
20260505205525 75 141 1.0 7.0 0.00 0.00 0.00 1017.7
20260505205028 72 268 1.0 7.0 0.00 0.00 0.00 1017.7
20260505204545 68 334 1.0 7.0 0.00 0.00 0.00 1017.9
20260505204026 64 295 2.0 7.0 0.00 0.00 0.00 1017.8
20260505203525 67 320 2.0 7.0 0.00 0.00 0.00 1017.8
20260505203052 71 284 1.0 5.0 0.00 0.00 0.00 1017.8
20260505202527 69 0 1.0 4.0 0.00 0.00 0.00 1017.9
20260505202027 67 356 1.0 4.0 0.00 0.00 0.00 1017.9
20260505201540 66 124 1.0 4.0 0.00 0.00 0.00 1018.0
20260505201029 64 355 1.0 4.0 0.00 0.00 0.00 1017.9
20260505200527 65 292 1.0 5.0 0.00 0.00 0.00 1017.9
20260505200038 65 239 0.0 5.0 0.00 0.00 0.00 1017.9
20260505195526 65 355 0.0 3.0 0.00 0.00 0.00 1017.9
20260505195026 65 0 0.0 3.0 0.00 0.00 0.00 1018.0
20260505194550 64 131 1.0 3.0 0.00 0.00 0.00 1018.0
20260505194026 63 124 0.0 3.0 0.00 0.00 0.00 1017.9
20260505193524 63 227 1.0 3.0 0.00 0.00 0.00 1018.1
20260505193038 63 141 0.0 2.0 0.00 0.00 0.00 1018.0
20260505192526 63 116 0.0 2.0 0.00 0.00 0.00 1017.9
20260505192024 62 99 0.0 3.0 0.00 0.00 0.00 1018.1
20260505191553 62 141 0.0 3.0 0.00 0.00 0.00 1018.0
20260505191027 62 268 1.0 3.0 0.00 0.00 0.00 1018.0
20260505190531 63 49 1.0 3.0 0.00 0.00 0.00 1018.1
20260505190041 62 109 0.0 4.0 0.00 0.00 0.00 1018.2
20260505185527 60 0 1.0 4.0 0.00 0.00 0.00 1018.2
20260505185029 61 283 0.0 4.0 0.00 0.00 0.00 1018.0
20260505184538 62 55 0.0 2.0 0.00 0.00 0.00 1018.0
20260505184025 61 151 0.0 2.0 0.00 0.00 0.00 1018.1
20260505183526 61 255 0.0 2.0 0.00 0.00 0.00 1018.2
20260505183043 61 39 0.0 2.0 0.00 0.00 0.00 1018.1
20260505182527 62 0 0.0 2.0 0.00 0.00 0.00 1018.1
20260505182027 61 151 0.0 3.0 0.00 0.00 0.00 1017.9
20260505181538 59 158 0.0 4.0 0.00 0.00 0.00 1018.0
20260505181028 60 239 1.0 4.0 0.00 0.00 0.00 1018.0
20260505180526 62 243 0.0 2.0 0.00 0.00 0.00 1018.0
20260505180049 62 0 0.0 3.0 0.00 0.00 0.00 1018.0
20260505175526 61 210 0.0 3.0 0.00 0.00 0.00 1017.9
20260505175026 62 76 0.0 3.0 0.00 0.00 0.00 1017.9
20260505174540 62 0 0.0 3.0 0.00 0.00 0.00 1017.9
20260505174029 61 124 0.0 2.0 0.00 0.00 0.00 1017.9
20260505173531 60 0 0.0 2.0 0.00 0.00 0.00 1017.9
20260505173036 60 141 0.0 2.0 0.00 0.00 0.00 1017.9
20260505172526 59 0 0.0 2.0 0.00 0.00 0.00 1017.8
20260505172027 58 268 0.0 3.0 0.00 0.00 0.00 1017.8
20260505171538 58 227 0.0 3.0 0.00 0.00 0.00 1017.8
20260505171027 57 305 0.0 2.0 0.00 0.00 0.00 1017.8
20260505170525 57 201 1.0 4.0 0.00 0.00 0.00 1017.8
20260505170037 56 227 1.0 4.0 0.00 0.00 0.00 1017.7
20260505165523 56 252 1.0 4.0 0.00 0.00 0.00 1017.7
20260505165023 58 295 0.0 4.0 0.00 0.00 0.00 1017.8
20260505164543 58 302 0.0 2.0 0.00 0.00 0.00 1017.7
20260505164024 58 0 0.0 3.0 0.00 0.00 0.00 1017.7
20260505163527 57 183 1.0 4.0 0.00 0.00 0.00 1017.7
20260505163037 57 230 0.0 4.0 0.00 0.00 0.00 1017.5
20260505162526 56 248 1.0 4.0 0.00 0.00 0.00 1017.5
20260505162028 56 183 1.0 4.0 0.00 0.00 0.00 1017.5
20260505161537 56 268 0.0 3.0 0.00 0.00 0.00 1017.5
20260505161027 56 0 0.0 5.0 0.00 0.00 0.00 1017.4
20260505160529 55 201 1.0 7.0 0.00 0.00 0.00 1017.5
20260505153036 53 286 4.0 9.0 0.00 0.00 0.00 1017.3
20260505152524 52 264 4.0 9.0 0.00 0.00 0.00 1017.3
20260505152028 53 282 4.0 9.0 0.00 0.00 0.00 1017.4
20260505151540 53 268 6.0 9.0 0.00 0.00 0.00 1017.3
20260505151027 53 309 5.0 8.0 0.00 0.00 0.00 1017.3
20260505150527 53 278 5.0 8.0 0.00 0.00 0.00 1017.3
20260505140527 51 283 4.0 7.0 0.00 0.00 0.00 1016.5
20260505125028 52 243 3.0 8.0 0.00 0.00 0.00 1016.1
20260505124559 52 261 4.0 8.0 0.00 0.00 0.00 1016.2
20260505124025 52 236 4.0 8.0 0.00 0.00 0.00 1016.1
20260505123526 53 285 2.0 8.0 0.00 0.00 0.00 1016.0
20260505123049 53 279 4.0 9.0 0.00 0.00 0.00 1016.2
20260505122526 53 280 4.0 9.0 0.00 0.00 0.00 1016.1
20260505122027 53 261 2.0 7.0 0.00 0.00 0.00 1016.1
20260505121607 53 268 3.0 6.0 0.00 0.00 0.00 1016.2
20260505121027 54 286 1.0 4.0 0.00 0.00 0.00 1016.1
20260505120526 54 0 0.0 4.0 0.00 0.00 0.00 1016.1
20260505120037 54 255 1.0 4.0 0.00 0.00 0.00 1016.1
20260505115526 54 277 1.0 6.0 0.00 0.00 0.00 1016.0
20260505115026 54 268 1.0 6.0 0.00 0.00 0.00 1016.0
20260505114536 54 268 1.0 5.0 0.00 0.00 0.00 1016.1
20260505114027 53 290 3.0 5.0 0.00 0.00 0.00 1016.1
20260505113526 54 259 2.0 4.0 0.00 0.00 0.00 1016.1
20260505113046 54 286 0.0 5.0 0.00 0.00 0.00 1016.1
20260505112530 54 283 1.0 5.0 0.00 0.00 0.00 1016.0
20260505112024 54 302 2.0 5.0 0.00 0.00 0.00 1016.0
20260505111540 54 0 1.0 6.0 0.00 0.00 0.00 1016.1
20260505111026 54 243 2.0 6.0 0.00 0.00 0.00 1016.0
20260505110526 54 227 1.0 4.0 0.00 0.00 0.00 1015.9
20260505102026 54 218 5.0 9.0 0.00 0.00 0.00 1015.6
20260505101541 54 292 4.0 8.0 0.00 0.00 0.00 1015.5
20260505101026 54 221 3.0 8.0 0.00 0.00 0.00 1015.7
20260505100527 55 254 3.0 8.0 0.00 0.00 0.00 1015.6
20260505100049 55 292 3.0 6.0 0.00 0.00 0.00 1015.6
20260505095525 55 172 2.0 6.0 0.00 0.00 0.00 1015.6
20260505095025 55 200 3.0 6.0 0.00 0.00 0.00 1015.5
20260505094542 55 268 2.0 6.0 0.00 0.00 0.00 1015.6
20260505094027 55 213 2.0 7.0 0.00 0.00 0.00 1015.4
20260505093526 55 243 1.0 8.0 0.00 0.00 0.00 1015.4
20260505093038 55 268 4.0 8.0 0.00 0.00 0.00 1015.4
20260505092527 55 268 2.0 8.0 0.00 0.00 0.00 1015.4
20260505092026 55 219 3.0 8.0 0.00 0.00 0.00 1015.3
20260505091549 55 274 3.0 9.0 0.00 0.00 0.00 1015.4
20260505091025 55 276 3.0 10.0 0.00 0.00 0.00 1015.2
20260505090526 55 183 4.0 11.0 0.00 0.00 0.00 1015.2
20260505090055 55 290 4.0 11.0 0.00 0.00 0.00 1015.2
20260505085526 55 255 6.0 11.0 0.00 0.00 0.00 1015.1
20260505085030 55 236 4.0 12.0 0.00 0.00 0.00 1015.2
20260505084538 55 280 6.0 12.0 0.00 0.00 0.00 1015.2
20260505084024 55 283 5.0 11.0 0.00 0.00 0.00 1015.1
20260505083525 56 286 4.0 11.0 0.00 0.00 0.00 1015.1
20260505083048 56 297 5.0 11.0 0.00 0.00 0.00 1015.2
20260505082527 56 267 5.0 11.0 0.00 0.00 0.00 1015.1
20260505082027 56 259 5.0 14.0 0.00 0.00 0.00 1015.0
20260505081543 56 290 4.0 14.0 0.00 0.00 0.00 1014.9
20260505081027 56 283 6.0 14.0 0.00 0.00 0.00 1015.0
20260505080531 56 173 4.0 13.0 0.00 0.00 0.00 1014.9